sat.trackr.live / text

‹ back to catalog

STARLINK-30925

NORAD 58406 · 2023-180E

PAYLOAD ACTIVE UNKNOWN

§ Identity

Operator
Country
US
Launch date
2023-11-22
Launch site
AFETR
Launch vehicle
Mass (kg)
RCS (m²)

Purposes: comms

External: N2YO · Heavens-Above · Gunter

§ Orbital elements

Epoch: 2026-05-24T14:22:14.763936Z

Period
94.27 min
Inclination
43.0029°
Eccentricity
0.0001042
Mean motion
15.27579758 rev/d
Perigee alt
482.3 km
Apogee alt
483.8 km
Semi-major
6,861.2 km
B*
6.0731e-5
RAAN
344.0004°
Arg perigee
273.0564°
Mean anomaly
87.0169°
Rev number
13,911

§ Raw data

STARLINK-309251 58406U 23180E   26144.59878199  .00001409  00000+0  60731-4 0  99942 58406  43.0029 344.0004 0001042 273.0564  87.0169 15.27579758139114

JSON: /api/v1/satellites/58406 · /tle

For live sub-satellite position, see the globe view (requires WebGL).

§ Visibility from observer

Set your observer location to see the next 7 days of passes ≥ 10°. The values pass through the URL so the page stays shareable.

No JS? Fill the form by hand. The geolocation button needs JavaScript.